[[{"header":{"parameterUnit":"m.s-1","parameterCategory":1,"la1":30.2991,"la2":30.254,"lo1":-89.0895,"lo2":-89.0444,"dy":0.0017,"dx":0.0017,"nx":28,"ny":28,"refTime":"2024-11-27T03:00:00:Z","depth":0,"parameterNumber":2,"parameterNumberName":"U-component_of_WINDS"},"data":[0,0,0,0,0,0,0,0,0,0,0,0,0,0,0,0,0,0,0,0,0,0,0,0,0,0,0,0,0,0,0,0,0,0,0,0,0,0,0,0,0,0,0,0,0,0,0,0,0,0,0,0,0,0,0,0,0,0,1.7915,1.7916,0,1.7955,1.7956,1.7956,1.7907,1.7905,1.7904,1.7902,1.7947,1.795,1.7952,0,0,0,0,0,0,0,0,0,0,0,0,0,1.7802,1.7805,1.7915,1.7916,1.7916,1.7955,1.7956,1.7956,1.7908,1.7905,1.7903,1.7901,1.7946,1.7949,1.7953,0,0,0,0,0,0,0,0,0,0,0,0,0,1.7848,1.7806,1.7915,1.7897,1.7895,1.7955,1.7956,1.7956,1.7908,1.7905,1.7903,1.79,1.7945,1.7949,1.7953,1.8034,0,0,1.7966,1.7968,0,0,0,0,0,0,0,0,1.7845,1.7852,1.7899,1.7898,1.7897,1.7923,1.7932,1.7982,1.7909,1.7903,1.7902,1.7899,1.7941,1.7946,1.7959,1.8036,1.8038,1.7967,1.7969,1.7971,1.7972,0,0,0,0,0,0,0,1.7842,1.785,1.7931,1.79,1.7898,1.7888,1.7891,1.7941,1.7937,1.7904,1.79,1.7905,1.794,1.7955,1.796,1.8039,1.7967,1.797,1.7973,1.7975,1.8187,1.819,0,0,0,0,0,0,1.7841,1.7848,1.793,1.7932,1.7864,1.7892,1.7896,1.7918,1.7936,1.7937,1.7908,1.7903,1.7949,1.7955,1.7961,1.8059,1.7971,1.7975,1.7978,1.8184,1.8188,1.8191,0,0,0,0,0,0,1.7838,1.7848,1.7928,1.7889,1.7898,1.7897,1.7922,1.792,1.7935,1.7939,1.7939,1.7923,1.7947,1.7955,1.8017,1.806,1.7977,1.7981,1.818,1.8185,1.8189,1.8254,0,0,0,0,0,0,1.7835,1.7848,1.7877,1.789,1.7901,1.7981,1.7924,1.7923,1.7942,1.7936,1.7954,1.7955,1.7946,1.8011,1.8021,1.8064,1.7984,1.8177,1.8183,1.8188,1.8248,1.826,1.8271,0,0,0,0,0,1.7832,1.7894,1.7879,1.7889,1.7937,1.7984,1.799,1.7977,1.7945,1.7976,1.7979,1.7954,1.8054,1.8017,1.8029,1.8074,1.8174,1.8181,1.8187,1.8243,1.8258,1.8271,0,0,0,0,0,0,1.7887,1.7895,1.7878,1.7947,1.7965,1.7975,1.8013,1.7993,1.8022,1.8015,1.8,1.8005,1.807,1.8078,1.8038,1.8155,1.8109,1.8118,1.8147,1.8161,1.8172,1.8169,1.7988,0,0,0,0,0,1.7907,1.7943,1.7949,1.8008,1.8018,1.8015,1.8034,1.8023,1.8042,1.805,1.8057,1.8078,1.8114,1.8138,1.8171,1.8249,1.8254,1.8286,1.8298,1.8307,1.8316,1.836,1.8375,1.8214,1.8213,1.8213,0,0,1.7949,1.7958,1.7981,1.802,1.8032,1.8072,1.8021,1.8064,1.8094,1.8057,1.8115,1.8122,1.8144,1.8214,1.8246,1.8223,1.8361,1.8316,1.8323,1.8327,1.8368,1.8384,1.8397,1.8218,1.8217,1.8217,0,0,1.8045,1.8055,1.8107,1.8121,1.8141,1.8138,1.8151,1.8165,1.8168,1.8226,1.82,1.8236,1.8297,1.8315,1.8332,1.8438,1.8416,1.8449,1.8509,1.8552,1.8565,1.8576,1.8616,1.863,1.8458,1.8458,1.8458,0,1.8095,1.8151,1.8136,1.8182,1.8201,1.8168,1.8222,1.8237,1.8267,1.8282,1.8255,1.8334,1.8346,1.8422,1.8448,1.8462,1.8478,1.8447,1.8564,1.8575,1.8585,1.8623,1.8638,1.8462,1.8461,1.8461,1.8461,0,1.8213,1.8253,1.8293,1.8322,1.8345,1.8395,1.8389,1.8415,1.8403,1.8404,1.8465,1.8479,1.8516,1.8533,1.8521,1.8608,1.8593,1.8566,1.8519,1.8605,1.864,1.8654,1.8468,1.8466,1.8465,1.8464,0,0,1.8343,1.8365,1.838,1.8395,1.8415,1.8447,1.8496,1.8531,1.8555,1.8578,1.862,1.8674,1.865,1.8669,1.866,1.8698,1.8784,1.8666,1.8666,1.8689,1.8882,1.8903,1.892,1.8769,1.8772,1.8774,1.8881,0,1.8441,1.8525,1.8514,1.8595,1.8633,1.8605,1.8648,1.8667,1.867,1.8704,1.8708,1.8748,1.8711,1.8723,1.8759,1.8765,1.8822,1.8757,1.8811,1.8813,1.8807,1.8938,1.896,1.9059,1.8894,1.8897,1.8898,0,1.8565,1.8593,1.8678,1.8695,1.871,1.8749,1.8782,1.8815,1.8837,1.8836,1.8859,1.8844,1.8896,1.8849,1.8921,1.8878,1.8899,1.8906,1.8909,1.8914,1.8861,1.8948,1.909,1.9106,1.8919,1.8918,1.8916,0,1.8654,1.8712,1.8771,1.8784,1.8805,1.8833,1.8844,1.8863,1.8886,1.8915,1.893,1.8965,1.8985,1.9014,1.9009,1.8975,1.9085,1.9036,1.9088,1.9088,1.9112,1.9111,1.9261,1.9125,1.9124,1.9124,1.9124,0,1.8764,1.8818,1.8811,1.8847,1.8908,1.8896,1.8956,1.8964,1.8981,1.902,1.8998,1.9036,1.9027,1.9065,1.9062,1.9124,1.9133,1.9136,1.9135,1.9138,1.9138,1.9152,1.9146,1.9128,1.9127,1.9127,1.9126,0,1.8873,1.887,1.8933,1.8948,1.8954,1.8998,1.9012,1.9047,1.9049,1.9099,1.911,1.9114,1.9158,1.9156,1.9206,1.9204,1.9281,1.9271,1.9273,1.9272,1.9324,1.9319,1.949,1.9512,1.936,1.9361,1.9363,0,1.8943,1.8984,1.9004,1.9028,1.9041,1.9079,1.9103,1.9094,1.912,1.9149,1.9182,1.9223,1.9256,1.9328,1.9336,1.9375,1.9367,1.9424,1.9372,1.9376,1.9369,1.9367,1.9372,1.9434,1.9436,1.9437,1.9438,0,1.9069,1.9067,1.91,1.9135,1.9163,1.919,1.9214,1.9236,1.923,1.926,1.9305,1.933,1.9382,1.9424,1.9462,1.9475,1.9457,1.9455,1.9469,1.9473,1.9473,1.9475,1.9302,1.9451,1.9449,1.9449,1.9448,1.9447,1.9162,1.9197,1.9218,1.9257,1.9275,1.9299,1.9334,1.934,1.9377,1.9417,1.941,1.9461,1.9485,1.9533,1.955,1.9591,1.957,1.9591,1.9596,1.9601,1.9608,1.9466,1.9597,1.9597,1.9597,1.9596,1.9596,0,1.9287,1.93,1.9336,1.9371,1.9403,1.9383,1.941,1.9438,1.9482,1.9505,1.9538,1.9591,1.9633,1.9645,1.9686,1.9717,1.971,1.9728,1.9726,1.973,1.9623,1.9607,1.9733,1.9733,1.9733,1.9733,1.9733,1.9733,1.9356,1.9416,1.9417,1.9487,1.9499,1.9547,1.9565,1.9588,1.9607,1.9666,1.9701,1.9708,1.9728,1.9771,1.981,1.9812,1.9829,1.9851,1.9851,1.9751,1.9737,1.9724,1.9709,1.9854,1.9855,1.9954,1.9955,1.9956]},{"header":{"parameterUnit":"m.s-1","parameterCategory":1,"la1":30.2991,"la2":30.254,"lo1":-89.0895,"lo2":-89.0444,"dy":0.0017,"dx":0.0017,"nx":28,"ny":28,"refTime":"2024-11-27T03:00:00:Z","depth":0,"parameterNumber":3,"parameterNumberName":"V-component_of_WINDS"},"data":[0,0,0,0,0,0,0,0,0,0,0,0,0,0,0,0,0,0,0,0,0,0,0,0,0,0,0,0,0,0,0,0,0,0,0,0,0,0,0,0,0,0,0,0,0,0,0,0,0,0,0,0,0,0,0,0,0,0,1.8081,1.8085,0,1.8413,1.8417,1.8421,1.8456,1.8452,1.8449,1.8446,1.879,1.8802,1.8814,0,0,0,0,0,0,0,0,0,0,0,0,0,1.7478,1.7489,1.8081,1.8085,1.8089,1.8413,1.8417,1.8422,1.8457,1.8452,1.8448,1.8444,1.8786,1.88,1.8815,0,0,0,0,0,0,0,0,0,0,0,0,0,1.7768,1.7493,1.808,1.8145,1.8154,1.8412,1.8418,1.8423,1.8457,1.8452,1.8447,1.8442,1.8781,1.8799,1.8817,1.9033,0,0,1.8874,1.8882,0,0,0,0,0,0,0,0,1.7752,1.779,1.8132,1.8141,1.8152,1.8388,1.8331,1.8628,1.8459,1.8343,1.8446,1.844,1.866,1.8688,1.8762,1.9049,1.9064,1.8875,1.8886,1.8894,1.89,0,0,0,0,0,0,0,1.7732,1.7776,1.8212,1.8136,1.8149,1.8159,1.8194,1.8387,1.8526,1.8352,1.8356,1.8394,1.8665,1.8744,1.877,1.9069,1.8875,1.8891,1.8903,1.891,1.955,1.9556,0,0,0,0,0,0,1.7699,1.7759,1.8202,1.8222,1.7935,1.8174,1.8213,1.8317,1.8524,1.8551,1.8398,1.8395,1.8715,1.8749,1.8783,1.905,1.8894,1.8912,1.8922,1.9544,1.9551,1.9558,0,0,0,0,0,0,1.7686,1.7738,1.8189,1.7992,1.805,1.8189,1.8306,1.8327,1.8406,1.8559,1.8584,1.8454,1.8712,1.8757,1.897,1.9062,1.892,1.8937,1.9537,1.9546,1.9555,1.9585,0,0,0,0,0,0,1.7668,1.7733,1.7816,1.7993,1.806,1.837,1.8312,1.8337,1.8437,1.8436,1.8617,1.8643,1.8712,1.8943,1.8989,1.9085,1.8951,1.953,1.9541,1.9552,1.9576,1.9594,1.9608,0,0,0,0,0,1.7647,1.7813,1.782,1.7874,1.8167,1.8375,1.8414,1.8489,1.8444,1.853,1.8628,1.8637,1.9044,1.8964,1.9016,1.9119,1.9524,1.9538,1.9551,1.9569,1.959,1.9608,0,0,0,0,0,0,1.7645,1.7837,1.7848,1.8076,1.8209,1.8381,1.8491,1.8509,1.8658,1.8651,1.8739,1.8779,1.899,1.9076,1.8984,1.9339,1.928,1.9304,1.9276,1.9297,1.9313,1.9288,1.8966,0,0,0,0,0,1.767,1.7822,1.7983,1.8168,1.8234,1.8351,1.8444,1.849,1.8632,1.8689,1.8803,1.8941,1.91,1.9203,1.9358,1.9588,1.9628,1.9685,1.97,1.9713,1.9734,1.9862,1.9889,1.9601,1.9601,1.9601,0,0,1.7726,1.7849,1.7941,1.8171,1.8279,1.8436,1.8398,1.8565,1.8682,1.8715,1.8924,1.9011,1.9171,1.9394,1.9498,1.9472,1.9821,1.973,1.9739,1.9753,1.9878,1.9905,1.9929,1.961,1.9609,1.9607,0,0,1.7906,1.8015,1.8182,1.829,1.8454,1.8531,1.857,1.874,1.8799,1.9009,1.9037,1.9177,1.9449,1.9562,1.9654,1.9875,1.989,1.9923,2.0008,2.0132,2.0154,2.0175,2.0254,2.0282,1.9943,1.9943,1.9943,0,1.7955,1.8191,1.8265,1.8432,1.8532,1.8567,1.8736,1.8838,1.9045,1.9114,1.9082,1.9423,1.9533,1.9782,1.9836,1.991,1.9958,1.9904,2.0145,2.0166,2.0187,2.0263,2.0293,1.9946,1.9946,1.9945,1.9945,0,1.8243,1.8405,1.852,1.8717,1.8831,1.8998,1.9098,1.9204,1.9239,1.9318,1.9532,1.9664,1.9846,1.9909,1.9946,2.0164,2.0143,2.0127,2.0069,2.0216,2.0289,2.0319,1.9951,1.9949,1.9949,1.9948,0,0,1.8434,1.8668,1.8709,1.8798,1.8981,1.9109,1.9277,1.9453,1.9543,1.9683,1.9827,2.0055,2.0041,2.0146,2.0196,2.0304,2.0471,2.0275,2.028,2.0308,2.072,2.0731,2.0764,2.0481,2.0486,2.0491,2.0706,0,1.8636,1.8936,1.9007,1.9264,1.9416,1.945,1.9596,1.9724,1.9802,1.9943,2.0029,2.019,2.0159,2.0222,2.0331,2.0428,2.0555,2.0413,2.0616,2.0623,2.0577,2.0803,2.0817,2.1013,2.0736,2.0741,2.0744,0,1.8913,1.9058,1.933,1.9491,1.9558,1.9688,1.9855,1.9989,2.0134,2.0183,2.03,2.0338,2.0515,2.0446,2.0691,2.0593,2.068,2.0739,2.0749,2.0772,2.0694,2.0833,2.1078,2.1108,2.079,2.0787,2.0783,0,1.9026,1.9289,1.9486,1.9561,1.9755,1.9845,1.993,2.0071,2.0172,2.0318,2.0384,2.0549,2.064,2.0767,2.0849,2.0791,2.1087,2.1025,2.1134,2.1132,2.1197,2.1192,2.146,2.125,2.1249,2.1249,2.1248,0,1.9245,1.941,1.9539,1.966,1.9846,1.9926,2.0108,2.0193,2.0318,2.0456,2.0495,2.0625,2.0724,2.0868,2.0933,2.1126,2.1166,2.1212,2.1227,2.1209,2.1204,2.1269,2.1258,2.1257,2.1255,2.1253,2.1252,0,1.9404,1.9496,1.9713,1.9877,1.9922,2.0052,2.0193,2.0313,2.039,2.0565,2.0611,2.0734,2.0905,2.0998,2.1212,2.1256,2.1472,2.148,2.1423,2.143,2.1534,2.1523,2.1855,2.1903,2.1659,2.1661,2.1663,0,1.9538,1.9666,1.9843,1.9938,2.0024,2.0177,2.028,2.0363,2.0469,2.0643,2.0741,2.0914,2.1056,2.1327,2.1436,2.16,2.1613,2.1717,2.1638,2.1615,2.1616,2.1608,2.1621,2.1732,2.1734,2.1736,2.1737,0,1.9768,1.9807,1.9953,2.0116,2.0237,2.0369,2.05,2.0576,2.0681,2.0797,2.0971,2.1082,2.1299,2.147,2.1642,2.173,2.1753,2.1761,2.1795,2.1779,2.1741,2.1764,2.1462,2.1754,2.1752,2.1751,2.175,2.1749,1.992,2.0035,2.0177,2.0339,2.0445,2.0567,2.0686,2.0778,2.0925,2.1108,2.1147,2.1331,2.1473,2.1706,2.1798,2.1944,2.1924,2.1973,2.1986,2.1997,2.2001,2.1716,2.1975,2.1975,2.1974,2.1974,2.1974,0,2.0152,2.0245,2.0392,2.0574,2.0701,2.0708,2.0853,2.0959,2.112,2.1249,2.1388,2.1588,2.1753,2.1874,2.2043,2.2136,2.215,2.2178,2.2173,2.2193,2.2009,2.1963,2.2163,2.2163,2.2163,2.2163,2.2163,2.2163,2.0288,2.0483,2.0538,2.0786,2.0878,2.1058,2.114,2.1252,2.1356,2.1577,2.1714,2.1791,2.1918,2.2096,2.2248,2.2279,2.234,2.2367,2.2399,2.2226,2.2206,2.2187,2.2144,2.2379,2.2379,2.2571,2.2573,2.2574]}]]